Time,TemperatureF,DewpointF,PressureIn,WindDirection,WindDirectionDegrees,WindSpeedMPH,WindSpeedGustMPH,Humidity,HourlyPrecipIn,Conditions,Clouds,dailyrainin,SoftwareType,DateUTC
2013-09-17 00:03:00,50.5,46.2,30.28,East,80,0.0,0.0,85,0.00,,---,0.00,VWS V14.01,2013-09-17 05:03:00,
2013-09-17 00:08:00,50.5,46.2,30.28,East,96,0.0,0.0,85,0.00,,---,0.00,VWS V14.01,2013-09-17 05:08:00,
2013-09-17 00:13:00,50.5,46.2,30.30,East,96,0.0,0.0,85,0.00,,---,0.00,VWS V14.01,2013-09-17 05:13:00,
2013-09-17 00:18:00,50.5,46.2,30.30,East,96,0.0,0.0,85,0.00,,---,0.00,VWS V14.01,2013-09-17 05:18:00,
2013-09-17 00:23:00,50.5,46.2,30.30,East,96,0.0,0.0,85,0.00,,---,0.00,VWS V14.01,2013-09-17 05:23:00,
2013-09-17 00:28:00,50.5,46.2,30.28,East,96,0.0,0.0,85,0.00,,---,0.00,VWS V14.01,2013-09-17 05:28:00,
2013-09-17 00:33:00,50.5,46.2,30.28,East,96,0.0,0.0,85,0.00,,---,0.00,VWS V14.01,2013-09-17 05:33:00,
2013-09-17 00:38:00,50.5,46.2,30.28,East,96,0.0,0.0,85,0.00,,---,0.00,VWS V14.01,2013-09-17 05:38:00,
2013-09-17 00:43:00,50.5,46.2,30.29,East,96,0.0,0.0,85,0.00,,---,0.00,VWS V14.01,2013-09-17 05:43:00,
2013-09-17 00:48:00,50.5,46.2,30.29,East,96,0.0,0.0,85,0.00,,---,0.00,VWS V14.01,2013-09-17 05:48:00,
2013-09-17 00:53:00,49.5,45.2,30.29,East,92,0.0,0.0,85,0.00,,---,0.00,VWS V14.01,2013-09-17 05:53:00,
2013-09-17 00:58:00,49.5,45.8,30.30,East,92,0.0,0.0,87,0.00,,---,0.00,VWS V14.01,2013-09-17 05:58:00,
2013-09-17 01:03:00,49.4,45.7,30.30,East,92,0.0,0.0,87,0.00,,---,0.00,VWS V14.01,2013-09-17 06:03:00,
2013-09-17 01:08:00,49.4,45.7,30.30,East,92,0.0,0.0,87,0.00,,---,0.00,VWS V14.01,2013-09-17 06:08:00,
2013-09-17 01:14:00,49.4,45.7,30.28,East,95,0.0,0.0,87,0.00,,---,0.00,VWS V14.01,2013-09-17 06:14:00,
2013-09-17 01:19:00,49.2,45.5,30.28,East,95,0.0,0.0,87,0.00,,---,0.00,VWS V14.01,2013-09-17 06:19:00,
2013-09-17 01:24:00,49.2,45.5,30.28,East,80,0.0,0.0,87,0.00,,---,0.00,VWS V14.01,2013-09-17 06:24:00,
2013-09-17 01:29:00,49.2,45.5,30.28,East,85,0.0,0.0,87,0.00,,---,0.00,VWS V14.01,2013-09-17 06:29:00,
2013-09-17 01:34:00,49.2,45.5,30.28,East,93,0.0,0.0,87,0.00,,---,0.00,VWS V14.01,2013-09-17 06:34:00,
2013-09-17 01:39:00,49.2,45.5,30.28,East,93,0.0,0.0,87,0.00,,---,0.00,VWS V14.01,2013-09-17 06:39:00,
2013-09-17 01:44:00,49.2,45.5,30.28,East,88,0.0,0.0,87,0.00,,---,0.00,VWS V14.01,2013-09-17 06:44:00,
2013-09-17 01:49:00,49.2,45.5,30.28,East,83,0.0,2.0,87,0.00,,---,0.00,VWS V14.01,2013-09-17 06:49:00,
2013-09-17 01:54:00,49.2,45.5,30.28,East,85,0.0,0.0,87,0.00,,---,0.00,VWS V14.01,2013-09-17 06:54:00,
2013-09-17 01:59:00,49.2,45.5,30.28,East,85,0.0,0.0,87,0.00,,---,0.00,VWS V14.01,2013-09-17 06:59:00,
2013-09-17 02:04:00,49.4,45.7,30.28,East,95,0.0,0.0,87,0.00,,---,0.00,VWS V14.01,2013-09-17 07:04:00,
2013-09-17 02:09:00,49.4,45.7,30.28,East,95,0.0,0.0,87,0.00,,---,0.00,VWS V14.01,2013-09-17 07:09:00,
2013-09-17 02:14:00,49.4,45.7,30.28,East,95,0.0,0.0,87,0.00,,---,0.00,VWS V14.01,2013-09-17 07:14:00,
2013-09-17 02:20:00,49.4,45.7,30.28,East,95,0.0,0.0,87,0.00,,---,0.00,VWS V14.01,2013-09-17 07:20:00,
2013-09-17 02:25:00,49.4,45.7,30.28,East,95,0.0,0.0,87,0.00,,---,0.00,VWS V14.01,2013-09-17 07:25:00,
2013-09-17 02:30:00,49.4,45.7,30.25,East,96,0.0,0.0,87,0.00,,---,0.00,VWS V14.01,2013-09-17 07:30:00,
2013-09-17 02:35:00,49.4,46.0,30.25,East,96,0.0,0.0,88,0.00,,---,0.00,VWS V14.01,2013-09-17 07:35:00,
2013-09-17 02:40:00,49.1,45.7,30.25,East,96,0.0,0.0,88,0.00,,---,0.00,VWS V14.01,2013-09-17 07:40:00,
2013-09-17 02:45:00,48.9,45.5,30.28,East,96,0.0,0.0,88,0.00,,---,0.00,VWS V14.01,2013-09-17 07:45:00,
2013-09-17 02:50:00,48.9,45.5,30.28,East,96,0.0,0.0,88,0.00,,---,0.00,VWS V14.01,2013-09-17 07:50:00,
2013-09-17 02:55:00,48.9,45.5,30.28,East,96,0.0,0.0,88,0.00,,---,0.00,VWS V14.01,2013-09-17 07:55:00,
2013-09-17 03:00:00,48.9,45.5,30.27,East,96,0.0,0.0,88,0.00,,---,0.00,VWS V14.01,2013-09-17 08:00:00,
2013-09-17 03:05:00,48.9,45.5,30.27,East,96,0.0,0.0,88,0.00,,---,0.00,VWS V14.01,2013-09-17 08:05:00,
2013-09-17 03:10:00,48.9,45.5,30.27,East,96,0.0,0.0,88,0.00,,---,0.00,VWS V14.01,2013-09-17 08:10:00,
2013-09-17 03:15:00,48.9,45.8,30.27,East,96,0.0,0.0,89,0.00,,---,0.00,VWS V14.01,2013-09-17 08:15:00,
2013-09-17 03:20:00,48.9,45.8,30.27,East,96,0.0,0.0,89,0.00,,---,0.00,VWS V14.01,2013-09-17 08:20:00,
2013-09-17 03:25:00,48.9,45.8,30.27,East,96,0.0,0.0,89,0.00,,---,0.00,VWS V14.01,2013-09-17 08:25:00,
2013-09-17 03:30:00,48.9,45.8,30.27,East,96,0.0,0.0,89,0.00,,---,0.00,VWS V14.01,2013-09-17 08:30:00,
2013-09-17 03:35:00,48.9,45.8,30.27,East,96,0.0,0.0,89,0.00,,---,0.00,VWS V14.01,2013-09-17 08:35:00,
2013-09-17 03:40:00,48.9,45.8,30.27,East,96,0.0,0.0,89,0.00,,---,0.00,VWS V14.01,2013-09-17 08:40:00,
2013-09-17 03:45:00,48.9,45.8,30.27,East,96,0.0,0.0,89,0.00,,---,0.00,VWS V14.01,2013-09-17 08:45:00,
2013-09-17 03:51:00,48.9,45.8,30.27,East,96,0.0,0.0,89,0.00,,---,0.00,VWS V14.01,2013-09-17 08:51:00,
2013-09-17 03:56:00,48.9,45.8,30.27,ENE,78,0.0,0.0,89,0.00,,---,0.00,VWS V14.01,2013-09-17 08:56:00,
2013-09-17 04:01:00,48.8,45.7,30.26,East,85,0.0,0.0,89,0.00,,---,0.00,VWS V14.01,2013-09-17 09:01:00,
2013-09-17 04:06:00,48.8,45.7,30.26,East,83,1.0,1.0,89,0.00,,---,0.00,VWS V14.01,2013-09-17 09:06:00,
2013-09-17 04:11:00,48.6,45.5,30.26,ENE,78,0.0,0.0,89,0.00,,---,0.00,VWS V14.01,2013-09-17 09:11:00,
2013-09-17 04:16:00,48.6,45.5,30.26,ENE,78,0.0,0.0,89,0.00,,---,0.00,VWS V14.01,2013-09-17 09:16:00,
2013-09-17 04:21:00,48.6,45.5,30.26,ENE,78,0.0,0.0,89,0.00,,---,0.00,VWS V14.01,2013-09-17 09:21:00,
2013-09-17 04:26:00,48.6,45.5,30.26,ENE,78,0.0,0.0,89,0.00,,---,0.00,VWS V14.01,2013-09-17 09:26:00,
2013-09-17 04:31:00,48.5,45.4,30.26,ENE,78,0.0,0.0,89,0.00,,---,0.00,VWS V14.01,2013-09-17 09:31:00,
2013-09-17 04:36:00,48.5,45.4,30.26,ENE,78,0.0,0.0,89,0.00,,---,0.00,VWS V14.01,2013-09-17 09:36:00,
2013-09-17 04:41:00,48.5,45.4,30.26,ENE,78,0.0,0.0,89,0.00,,---,0.00,VWS V14.01,2013-09-17 09:41:00,
2013-09-17 04:46:00,48.3,45.2,30.26,ENE,78,0.0,0.0,89,0.00,,---,0.00,VWS V14.01,2013-09-17 09:46:00,
2013-09-17 04:51:00,48.3,45.2,30.26,ENE,78,0.0,0.0,89,0.00,,---,0.00,VWS V14.01,2013-09-17 09:51:00,
2013-09-17 04:56:00,48.3,45.5,30.25,ENE,78,0.0,0.0,90,0.00,,---,0.00,VWS V14.01,2013-09-17 09:56:00,
2013-09-17 05:01:00,48.2,45.7,30.25,ENE,78,0.0,0.0,91,0.00,,---,0.00,VWS V14.01,2013-09-17 10:01:00,
2013-09-17 05:06:00,48.2,45.7,30.25,ENE,78,0.0,0.0,91,0.00,,---,0.00,VWS V14.01,2013-09-17 10:06:00,
2013-09-17 05:11:00,48.2,45.7,30.25,ENE,78,0.0,0.0,91,0.00,,---,0.00,VWS V14.01,2013-09-17 10:11:00,
2013-09-17 05:16:00,48.2,45.7,30.25,ENE,78,0.0,0.0,91,0.00,,---,0.00,VWS V14.01,2013-09-17 10:16:00,
2013-09-17 05:21:00,48.2,45.7,30.25,East,95,0.0,0.0,91,0.00,,---,0.00,VWS V14.01,2013-09-17 10:21:00,
2013-09-17 05:26:00,48.2,45.7,30.25,East,92,0.0,0.0,91,0.00,,---,0.00,VWS V14.01,2013-09-17 10:26:00,
2013-09-17 05:31:00,48.2,45.7,30.25,East,88,0.0,0.0,91,0.00,,---,0.00,VWS V14.01,2013-09-17 10:31:00,
2013-09-17 05:37:00,48.0,45.5,30.25,East,85,0.0,0.0,91,0.00,,---,0.00,VWS V14.01,2013-09-17 10:37:00,
2013-09-17 05:42:00,48.0,45.8,30.25,East,85,0.0,0.0,92,0.00,,---,0.00,VWS V14.01,2013-09-17 10:42:00,
2013-09-17 05:47:00,47.9,45.7,30.25,East,85,0.0,0.0,92,0.00,,---,0.00,VWS V14.01,2013-09-17 10:47:00,
2013-09-17 05:52:00,47.9,45.7,30.25,ENE,76,1.0,1.0,92,0.00,,---,0.00,VWS V14.01,2013-09-17 10:52:00,
2013-09-17 05:57:00,47.9,45.7,30.25,East,83,0.0,1.0,92,0.00,,---,0.00,VWS V14.01,2013-09-17 10:57:00,
2013-09-17 06:02:00,47.7,45.5,30.25,East,83,0.0,0.0,92,0.00,,---,0.00,VWS V14.01,2013-09-17 11:02:00,
2013-09-17 06:07:00,47.7,45.5,30.25,East,83,0.0,0.0,92,0.00,,---,0.00,VWS V14.01,2013-09-17 11:07:00,
2013-09-17 06:12:00,47.6,45.4,30.25,East,85,0.0,0.0,92,0.00,,---,0.00,VWS V14.01,2013-09-17 11:12:00,
2013-09-17 06:17:00,47.4,45.2,30.25,East,79,3.0,3.0,92,0.00,,---,0.00,VWS V14.01,2013-09-17 11:17:00,
2013-09-17 06:22:00,47.4,45.2,30.25,East,86,0.0,3.0,92,0.00,,---,0.00,VWS V14.01,2013-09-17 11:22:00,
2013-09-17 06:27:00,47.4,45.2,30.25,East,86,0.0,0.0,92,0.00,,---,0.00,VWS V14.01,2013-09-17 11:27:00,
2013-09-17 06:32:00,47.3,45.1,30.25,ENE,72,0.0,0.0,92,0.00,,---,0.00,VWS V14.01,2013-09-17 11:32:00,
2013-09-17 06:37:00,47.3,45.1,30.25,ENE,72,0.0,0.0,92,0.00,,---,0.00,VWS V14.01,2013-09-17 11:37:00,
2013-09-17 06:42:00,47.3,45.1,30.25,ENE,72,0.0,0.0,92,0.00,,---,0.00,VWS V14.01,2013-09-17 11:42:00,
2013-09-17 06:47:00,47.3,45.1,30.25,ENE,72,0.0,0.0,92,0.00,,---,0.00,VWS V14.01,2013-09-17 11:47:00,
2013-09-17 06:52:00,47.4,45.5,30.25,ESE,117,1.0,1.0,93,0.00,,---,0.00,VWS V14.01,2013-09-17 11:52:00,
2013-09-17 06:57:00,47.4,45.5,30.25,East,79,1.0,2.0,93,0.00,,---,0.00,VWS V14.01,2013-09-17 11:57:00,
2013-09-17 07:02:00,47.4,45.5,30.25,ESE,106,0.0,3.0,93,0.00,,---,0.00,VWS V14.01,2013-09-17 12:02:00,
2013-09-17 07:07:00,47.4,45.5,30.25,ESE,107,0.0,0.0,93,0.00,,---,0.00,VWS V14.01,2013-09-17 12:07:00,
2013-09-17 07:12:00,47.4,45.8,30.26,East,96,0.0,0.0,94,0.00,,---,0.00,VWS V14.01,2013-09-17 12:12:00,
2013-09-17 07:17:00,47.4,45.8,30.26,East,97,0.0,0.0,94,0.00,,---,0.00,VWS V14.01,2013-09-17 12:17:00,
2013-09-17 07:22:00,47.4,45.8,30.26,East,95,0.0,0.0,94,0.00,,---,0.00,VWS V14.01,2013-09-17 12:22:00,
2013-09-17 07:27:00,47.9,46.3,30.27,ESE,106,2.0,2.0,94,0.00,,---,0.00,VWS V14.01,2013-09-17 12:27:00,
2013-09-17 07:32:00,48.0,46.4,30.27,ESE,110,0.0,0.0,94,0.00,,---,0.00,VWS V14.01,2013-09-17 12:32:00,
2013-09-17 07:37:00,48.0,46.4,30.27,ENE,73,0.0,0.0,94,0.00,,---,0.00,VWS V14.01,2013-09-17 12:37:00,
2013-09-17 07:42:00,48.5,47.1,30.27,East,82,2.0,3.0,95,0.00,,---,0.00,VWS V14.01,2013-09-17 12:42:00,
2013-09-17 07:47:00,48.9,47.5,30.27,East,83,0.0,0.0,95,0.00,,---,0.00,VWS V14.01,2013-09-17 12:47:00,
2013-09-17 07:52:00,49.2,47.8,30.27,ESE,107,0.0,0.0,95,0.00,,---,0.00,VWS V14.01,2013-09-17 12:52:00,
2013-09-17 07:57:00,49.5,48.1,30.27,ESE,114,0.0,0.0,95,0.00,,---,0.00,VWS V14.01,2013-09-17 12:57:00,
2013-09-17 08:02:00,49.5,48.1,30.27,East,97,0.0,0.0,95,0.00,,---,0.00,VWS V14.01,2013-09-17 13:02:00,
2013-09-17 08:07:00,49.5,48.1,30.27,East,97,0.0,0.0,95,0.00,,---,0.00,VWS V14.01,2013-09-17 13:07:00,
2013-09-17 08:12:00,49.5,48.1,30.27,East,100,2.0,2.0,95,0.00,,---,0.00,VWS V14.01,2013-09-17 13:12:00,
2013-09-17 08:17:00,49.5,48.1,30.27,East,100,2.0,2.0,95,0.00,,---,0.00,VWS V14.01,2013-09-17 13:17:00,
2013-09-17 08:23:00,49.5,48.1,30.27,East,100,2.0,2.0,95,0.00,,---,0.00,VWS V14.01,2013-09-17 13:23:00,
2013-09-17 08:28:00,49.5,48.1,30.26,East,100,2.0,2.0,95,0.00,,---,0.00,VWS V14.01,2013-09-17 13:28:00,
2013-09-17 08:33:00,49.5,48.1,30.26,East,100,2.0,2.0,95,0.00,,---,0.00,VWS V14.01,2013-09-17 13:33:00,
2013-09-17 08:38:00,49.5,48.1,30.26,East,100,2.0,2.0,95,0.00,,---,0.00,VWS V14.01,2013-09-17 13:38:00,
2013-09-17 08:43:00,49.5,48.1,30.25,East,100,2.0,2.0,95,0.00,,---,0.00,VWS V14.01,2013-09-17 13:43:00,
2013-09-17 08:48:00,49.5,48.1,30.25,East,100,2.0,2.0,95,0.00,,---,0.00,VWS V14.01,2013-09-17 13:48:00,
2013-09-17 08:53:00,49.5,48.1,30.25,East,100,2.0,2.0,95,0.00,,---,0.00,VWS V14.01,2013-09-17 13:53:00,
2013-09-17 08:58:00,49.5,48.1,30.25,East,100,2.0,2.0,95,0.00,,---,0.00,VWS V14.01,2013-09-17 13:58:00,
2013-09-17 09:03:00,49.5,48.1,30.25,East,100,2.0,2.0,95,0.00,,---,0.00,VWS V14.01,2013-09-17 14:03:00,
2013-09-17 09:08:00,49.5,48.1,30.25,East,100,2.0,2.0,95,0.00,,---,0.00,VWS V14.01,2013-09-17 14:08:00,
2013-09-17 09:13:00,49.5,48.1,30.25,East,100,2.0,2.0,95,0.00,,---,0.00,VWS V14.01,2013-09-17 14:13:00,
2013-09-17 09:18:00,49.5,48.1,30.25,East,100,2.0,2.0,95,0.00,,---,0.00,VWS V14.01,2013-09-17 14:18:00,
2013-09-17 09:23:00,49.5,48.1,30.25,East,100,2.0,2.0,95,0.00,,---,0.00,VWS V14.01,2013-09-17 14:23:00,
2013-09-17 09:28:00,49.5,48.1,30.25,East,100,2.0,2.0,95,0.00,,---,0.00,VWS V14.01,2013-09-17 14:28:00,
2013-09-17 09:33:00,58.9,53.1,30.25,East,90,0.0,0.0,81,0.00,,---,0.00,VWS V14.01,2013-09-17 14:33:00,
2013-09-17 09:38:00,59.6,53.8,30.25,ESE,106,0.0,0.0,81,0.00,,---,0.00,VWS V14.01,2013-09-17 14:38:00,
2013-09-17 09:43:00,59.6,53.8,30.25,ESE,109,0.0,0.0,81,0.00,,---,0.00,VWS V14.01,2013-09-17 14:43:00,
2013-09-17 09:48:00,59.5,53.7,30.25,ESE,104,0.0,0.0,81,0.00,,---,0.00,VWS V14.01,2013-09-17 14:48:00,
2013-09-17 09:54:00,59.5,53.7,30.25,East,100,0.0,0.0,81,0.00,,---,0.00,VWS V14.01,2013-09-17 14:54:00,
2013-09-17 09:59:00,59.5,53.7,30.25,SE,127,0.0,0.0,81,0.00,,---,0.00,VWS V14.01,2013-09-17 14:59:00,
2013-09-17 10:04:00,59.5,53.7,30.25,SSE,157,0.0,0.0,81,0.00,,---,0.00,VWS V14.01,2013-09-17 15:04:00,
2013-09-17 19:42:00,67.6,57.1,30.07,ESE,114,0.0,0.0,69,0.00,,---,0.00,VWS V14.01,2013-09-18 00:42:00,
2013-09-17 19:47:00,67.6,57.1,30.07,ESE,119,0.0,0.0,69,0.00,,---,0.00,VWS V14.01,2013-09-18 00:47:00,
2013-09-17 19:52:00,67.4,56.9,30.07,SE,126,0.0,0.0,69,0.00,,---,0.00,VWS V14.01,2013-09-18 00:52:00,
2013-09-17 19:57:00,67.4,56.9,30.07,ESE,117,0.0,0.0,69,0.00,,---,0.00,VWS V14.01,2013-09-18 00:57:00,
2013-09-17 20:02:00,67.3,56.8,30.07,ESE,117,0.0,0.0,69,0.00,,---,0.00,VWS V14.01,2013-09-18 01:02:00,
2013-09-17 20:07:00,67.3,56.8,30.07,SE,126,0.0,0.0,69,0.00,,---,0.00,VWS V14.01,2013-09-18 01:07:00,
2013-09-17 20:12:00,67.3,56.8,30.06,SE,126,0.0,0.0,69,0.00,,---,0.00,VWS V14.01,2013-09-18 01:12:00,
2013-09-17 20:17:00,67.3,56.8,30.06,SE,126,0.0,0.0,69,0.00,,---,0.00,VWS V14.01,2013-09-18 01:17:00,
2013-09-17 20:23:00,67.1,57.4,30.06,SE,126,0.0,0.0,71,0.00,,---,0.00,VWS V14.01,2013-09-18 01:23:00,
2013-09-17 20:28:00,67.1,57.4,30.06,ESE,112,0.0,0.0,71,0.00,,---,0.00,VWS V14.01,2013-09-18 01:28:00,
2013-09-17 20:33:00,67.1,57.4,30.06,ESE,112,0.0,0.0,71,0.00,,---,0.00,VWS V14.01,2013-09-18 01:33:00,
2013-09-17 20:38:00,67.1,57.4,30.06,ESE,121,0.0,0.0,71,0.00,,---,0.00,VWS V14.01,2013-09-18 01:38:00,
2013-09-17 20:43:00,67.1,57.4,30.06,SE,127,0.0,0.0,71,0.00,,---,0.00,VWS V14.01,2013-09-18 01:43:00,
2013-09-17 20:48:00,66.9,57.2,30.06,SE,137,0.0,0.0,71,0.00,,---,0.00,VWS V14.01,2013-09-18 01:48:00,
2013-09-17 20:53:00,66.9,57.2,30.06,SE,138,0.0,0.0,71,0.00,,---,0.00,VWS V14.01,2013-09-18 01:53:00,
2013-09-17 20:58:00,66.9,57.2,30.06,SE,136,0.0,0.0,71,0.00,,---,0.00,VWS V14.01,2013-09-18 01:58:00,
2013-09-17 21:03:00,66.8,57.1,30.06,SE,136,0.0,0.0,71,0.00,,---,0.00,VWS V14.01,2013-09-18 02:03:00,
2013-09-17 21:08:00,66.8,57.1,30.06,SSE,151,0.0,0.0,71,0.00,,---,0.00,VWS V14.01,2013-09-18 02:08:00,
2013-09-17 21:13:00,66.8,57.1,30.07,SSE,150,0.0,0.0,71,0.00,,---,0.00,VWS V14.01,2013-09-18 02:13:00,
2013-09-17 21:18:00,66.6,56.9,30.07,ESE,121,0.0,0.0,71,0.00,,---,0.00,VWS V14.01,2013-09-18 02:18:00,
2013-09-17 21:23:00,66.6,56.9,30.07,SE,145,0.0,0.0,71,0.00,,---,0.00,VWS V14.01,2013-09-18 02:23:00,
2013-09-17 21:28:00,66.6,57.3,30.06,SE,143,0.0,0.0,72,0.00,,---,0.00,VWS V14.01,2013-09-18 02:28:00,
2013-09-17 21:33:00,66.6,57.3,30.06,SE,143,0.0,0.0,72,0.00,,---,0.00,VWS V14.01,2013-09-18 02:33:00,
2013-09-17 21:38:00,66.4,57.1,30.06,ESE,113,0.0,0.0,72,0.00,,---,0.00,VWS V14.01,2013-09-18 02:38:00,
2013-09-17 21:43:00,66.3,57.0,30.06,ESE,113,0.0,0.0,72,0.00,,---,0.00,VWS V14.01,2013-09-18 02:43:00,
2013-09-17 21:48:00,66.1,56.8,30.06,ESE,113,0.0,0.0,72,0.00,,---,0.00,VWS V14.01,2013-09-18 02:48:00,
2013-09-17 21:54:00,66.1,56.8,30.06,ESE,113,0.0,0.0,72,0.00,,---,0.00,VWS V14.01,2013-09-18 02:54:00,
2013-09-17 21:59:00,66.1,56.8,30.06,East,100,0.0,0.0,72,0.00,,---,0.00,VWS V14.01,2013-09-18 02:59:00,
2013-09-17 22:04:00,66.1,57.2,30.06,SE,126,0.0,0.0,73,0.00,,---,0.00,VWS V14.01,2013-09-18 03:04:00,
2013-09-17 22:09:00,66.1,57.2,30.06,East,100,0.0,0.0,73,0.00,,---,0.00,VWS V14.01,2013-09-18 03:09:00,
2013-09-17 22:14:00,66.1,57.2,30.06,SE,130,0.0,0.0,73,0.00,,---,0.00,VWS V14.01,2013-09-18 03:14:00,
2013-09-17 22:19:00,66.0,57.1,30.06,SE,127,0.0,0.0,73,0.00,,---,0.00,VWS V14.01,2013-09-18 03:19:00,
2013-09-17 22:24:00,66.1,56.8,30.06,SE,127,0.0,0.0,72,0.00,,---,0.00,VWS V14.01,2013-09-18 03:24:00,
2013-09-17 22:29:00,66.1,56.8,30.05,SE,138,0.0,0.0,72,0.00,,---,0.00,VWS V14.01,2013-09-18 03:29:00,
2013-09-17 22:34:00,66.1,56.8,30.05,SSE,151,0.0,0.0,72,0.00,,---,0.00,VWS V14.01,2013-09-18 03:34:00,
2013-09-17 22:39:00,66.1,56.8,30.05,ESE,110,0.0,0.0,72,0.00,,---,0.00,VWS V14.01,2013-09-18 03:39:00,
2013-09-17 22:44:00,66.1,56.4,30.04,ESE,114,0.0,0.0,71,0.00,,---,0.00,VWS V14.01,2013-09-18 03:44:00,
2013-09-17 22:49:00,66.1,56.4,30.04,SE,126,0.0,0.0,71,0.00,,---,0.00,VWS V14.01,2013-09-18 03:49:00,
2013-09-17 22:54:00,66.0,56.3,30.04,SE,143,0.0,0.0,71,0.00,,---,0.00,VWS V14.01,2013-09-18 03:54:00,
2013-09-17 22:59:00,66.0,56.3,30.04,SE,143,0.0,0.0,71,0.00,,---,0.00,VWS V14.01,2013-09-18 03:59:00,
2013-09-17 23:01:00,66.0,56.3,30.04,SE,143,0.0,0.0,71,0.00,,---,0.00,VWS V14.01,2013-09-18 04:01:00,
2013-09-17 23:02:00,66.0,56.3,30.04,SE,143,0.0,0.0,71,0.00,,---,0.00,VWS V14.01,2013-09-18 04:02:00,
2013-09-17 23:08:00,66.0,56.3,30.04,SE,143,0.0,0.0,71,0.00,,---,0.00,VWS V14.01,2013-09-18 04:08:00,
2013-09-17 23:13:00,66.0,56.3,30.04,SE,143,0.0,0.0,71,0.00,,---,0.00,VWS V14.01,2013-09-18 04:13:00,
2013-09-17 23:18:00,66.0,56.3,30.04,SE,143,0.0,0.0,71,0.00,,---,0.00,VWS V14.01,2013-09-18 04:18:00,
2013-09-17 23:23:00,65.0,55.4,30.04,SE,134,0.0,0.0,71,0.00,,---,0.00,VWS V14.01,2013-09-18 04:23:00,
2013-09-17 23:28:00,65.0,56.9,30.04,SE,127,0.0,0.0,75,0.00,,---,0.00,VWS V14.01,2013-09-18 04:28:00,
2013-09-17 23:33:00,65.0,56.9,30.04,SE,137,0.0,0.0,75,0.00,,---,0.00,VWS V14.01,2013-09-18 04:33:00,
2013-09-17 23:38:00,64.3,56.2,30.04,SE,138,0.0,0.0,75,0.00,,---,0.00,VWS V14.01,2013-09-18 04:38:00,
2013-09-17 23:43:00,64.2,56.1,30.04,SE,126,0.0,0.0,75,0.00,,---,0.00,VWS V14.01,2013-09-18 04:43:00,
2013-09-17 23:48:00,64.0,56.3,30.04,SE,140,0.0,0.0,76,0.00,,---,0.00,VWS V14.01,2013-09-18 04:48:00,
2013-09-17 23:53:00,64.0,56.3,30.04,ESE,120,0.0,0.0,76,0.00,,---,0.00,VWS V14.01,2013-09-18 04:53:00,
2013-09-17 23:58:00,64.0,56.3,30.04,SSE,148,0.0,0.0,76,0.00,,---,0.00,VWS V14.01,2013-09-18 04:58:00,